Track SNUGLITE-II now! 10-day predictions SNUGLITE-II is classified as:
1 52899U 22065F 24325.85184452 .00002607 00000-0 52837-3 0 9994 2 52899 98.1415 104.2987 0007989 30.1768 329.9892 14.62059910127146